Regional Weather Roundup
Issued by NWS

Home | Current Version | Previous Version | Text Only | Print | Product List | Glossary Off
Versions: 1 2 3 4 5 6 7 8 9 10 11 12 13 14 15 16 17 18 19 20 21 22 23 24 25 26 27 28 29 30 31 32 33 34 35 36 37 38 39 40 41 42 43 44 45 46 47 48 49 50

000
ASUS43 KDTX 210601
RWRMI
MICHIGAN HOURLY REGIONAL WEATHER ROUNDUP
NATIONAL WEATHER SERVICE DETROIT/PONTIAC MI
200 AM EDT MON APR 21 2014

NOTE: "FAIR" INDICATES FEW OR NO CLOUDS BELOW 12,000 FEET WITH NO
SIGNIFICANT WEATHER AND/OR OBSTRUCTION TO VISIBILITY.

MIZ047>049-052>055-059>063-066>070-074>076-081>083-210700-
SOUTHEAST LOWER MICHIGAN

CITY           SKY/WX    TMP DP  RH WIND       PRES   REMARKS
ADRIAN         FAIR      47  39  74 CALM      30.08F
6HR MIN TEMP:  45; 6HR MAX TEMP:  68;

ALMA           CLOUDY    58  35  42 S3        30.05S
ANN ARBOR      FAIR      44  35  70 CALM      30.09F
BAD AXE        CLOUDY    54  39  57 S5        30.06F
6HR MIN TEMP:  54; 6HR MAX TEMP:  61;

CARO           CLOUDY    56  37  48 CALM      30.05F
DETROIT CITY   FAIR      52  32  46 CALM      30.09F
6HR MIN TEMP:  50; 6HR MAX TEMP:  69;

DETROIT        MOCLDY    48  35  60 CALM      30.10F
6HR MIN TEMP:  47; 6HR MAX TEMP:  63;

FLINT          FAIR      53  37  54 S6        30.06F
6HR MIN TEMP:  52; 6HR MAX TEMP:  69;

GROSSE ILE     FAIR      46  39  76 S5        30.07F
HILLSDALE      FAIR      52  32  46 S5        30.07F
6HR MIN TEMP:  49; 6HR MAX TEMP:  68;

HOWELL         FAIR      50  36  57 SE5       30.07F
6HR MIN TEMP:  49; 6HR MAX TEMP:  67;


CITY           SKY/WX    TMP DP  RH WIND       PRES   REMARKS
JACKSON        FAIR      50  35  56 S3        30.07F
6HR MIN TEMP:  48; 6HR MAX TEMP:  68;

LAMBERTVILLE   FAIR      48  39  71 CALM      30.09F
LANSING        CLOUDY    57  31  37 S5        30.06F
6HR MIN TEMP:  57; 6HR MAX TEMP:  68;

LAPEER         FAIR      47  37  67 CALM      30.07F
MASON          FAIR      52  35  53 S6        30.06F
MONROE         FAIR      45  37  76 CALM      30.07F
MT. CLEMENS    FAIR      45  37  74 NE2       30.08F
6HR MIN TEMP:  43; 6HR MAX TEMP:  58;

PONTIAC        FAIR      48  34  58 CALM      30.08F
6HR MIN TEMP:  48; 6HR MAX TEMP:  69;

PORT HOPE        N/A     51  46  83 SE5       30.04F
6HR MIN TEMP:  50; 6HR MAX TEMP:  60;

PORT HURON     FAIR      45  36  70 CALM      30.09F
TRI CITIES     LGT RAIN  60  37  42 S6        30.05F
6HR MIN TEMP:  60; 6HR MAX TEMP:  68; 6HR PCP: TRACE;

TROY           FAIR      52  32  46 SW3       30.09F
SAGINAW HB     CLOUDY    59  32  36 S6        30.04F
YPSILANTI      FAIR      47  35  63 CALM      30.09F
6HR MIN TEMP:  47; 6HR MAX TEMP:  67;

$$
MIZ043>046-050>051-056>058-064>065-071>073-077>080-210700-
SOUTHWEST LOWER MICHIGAN

CITY           SKY/WX    TMP DP  RH WIND       PRES   REMARKS
BATTLE CREEK   FAIR      52  37  56 S5        30.06F
6HR MIN TEMP:  50; 6HR MAX TEMP:  67;

BENTON HARBOR  FAIR      58  34  40 SE5       30.04S
6HR MIN TEMP:  57; 6HR MAX TEMP:  68;

BIG RAPIDS     MOCLDY    60  38  43 S5        30.02F
6HR MIN TEMP:  57; 6HR MAX TEMP:  67;

COLDWATER      FAIR      47  38  68 CALM      30.07S
6HR MIN TEMP:  46; 6HR MAX TEMP:  66;

FREMONT        CLOUDY    61  33  35 S5        30.02S
HOLLAND        FAIR      59  34  39 S8        30.03F
6HR MIN TEMP:  58; 6HR MAX TEMP:  66;

GRAND RAPIDS   FAIR      56  33  42 S9        30.04F
6HR MIN TEMP:  56; 6HR MAX TEMP:  70;

IONIA          FAIR      57  33  40 S6        30.04F
KALAMAZOO      FAIR      54  34  46 S5        30.06S
6HR MIN TEMP:  52; 6HR MAX TEMP:  65;

LUDINGTON      FAIR      61  37  41 S7        29.99F
6HR MIN TEMP:  55; 6HR MAX TEMP:  63;

MARSHALL       FAIR      47  34  61 CALM      30.06F
MOUNT PLEASANT CLOUDY    61  33  34 S3        30.03F
6HR MIN TEMP:  60; 6HR MAX TEMP:  69;

MUSKEGON       CLOUDY    67  31  26 S15G21    30.01F
6HR MIN TEMP:  56; 6HR MAX TEMP:  67;

SOUTH HAVEN    FAIR      59  32  36 S6        30.03F
$$
MIZ016>042-210700-
NORTHERN LOWER MICHIGAN

CITY           SKY/WX    TMP DP  RH WIND       PRES   REMARKS
ALPENA         CLOUDY    48  41  76 NE3       30.03F
6HR MIN TEMP:  44; 6HR MAX TEMP:  49;

BEAVER ISLAND  LGT RAIN  40  39  96 S3        30.01F
6HR MIN TEMP:  38; 6HR MAX TEMP:  41;

BELLAIRE       CLOUDY    49  44  85 CALM      29.99F
6HR MIN TEMP:  48; 6HR MAX TEMP:  59;

CADILLAC       CLOUDY    51  49  94 CALM      30.01F
CHARLEVOIX     CLOUDY    41  37  85 N5        30.05S
6HR MIN TEMP:  40; 6HR MAX TEMP:  46;

FRANKFORT      CLOUDY    49  40  71 CALM      29.99F
GAYLORD        CLOUDY    52  41  66 SE3       30.01F
6HR MIN TEMP:  51; 6HR MAX TEMP:  60; 6HR PCP: TRACE;

GRAYLING       CLOUDY    53  43  69 CALM      30.02F
6HR MIN TEMP:  53; 6HR MAX TEMP:  62;

HARBOR SPRINGS CLOUDY    44  43  97 NE3       30.02S FOG
HOUGHTON LAKE  CLOUDY    52  50  93 CALM      30.02F
6HR MIN TEMP:  51; 6HR MAX TEMP:  66; 6HR PCP:  0.03;

MANISTEE       CLOUDY    55  43  62 E3        29.99F
OSCODA         LGT RAIN  50  48  93 SW5       30.02F
PELLSTON       CLOUDY    42  40  92 S3        30.03F
6HR MIN TEMP:  42; 6HR MAX TEMP:  50; 6HR PCP:  0.06;

TRAVERSE CITY  CLOUDY    50  41  71 CALM      29.98F
6HR MIN TEMP:  50; 6HR MAX TEMP:  62;

$$
MIZ007>008-015-210700-
EASTERN UPPER MICHIGAN

CITY           SKY/WX    TMP DP  RH WIND       PRES   REMARKS
KINROSS        CLOUDY    36  36 100 CALM      30.00F VSB 1/4
6HR MIN TEMP:  36; 6HR MAX TEMP:  39; 6HR PCP:  0.01;

MACKINAC ISLAN CLOUDY    39  38  98 S13       30.01F FOG     WCI  31
6HR MIN TEMP:  37; 6HR MAX TEMP:  40; 6HR PCP:  0.08;

NEWBERRY       FAIR      35  34  98 W8        29.99S FOG     WCI  28
S. S. MARIE    LGT RAIN  36  35  96 E3        30.01F VSB 1/4
6HR MIN TEMP:  35; 6HR MAX TEMP:  38; 6HR PCP: TRACE;

$$
MIZ004>006-011>014-085-210700-
CENTRAL UPPER MICHIGAN

CITY           SKY/WX    TMP DP  RH WIND       PRES   REMARKS
MANISTIQUE     CLOUDY    33  33  96 SE3       29.99F FOG
6HR MIN TEMP:  33; 6HR MAX TEMP:  37;

ESCANABA       MOCLDY    37  34  87 CALM      29.99S
6HR MIN TEMP:  36; 6HR MAX TEMP:  41;

MENOMINEE      MOCLDY    48  46  93 CALM      29.97F
6HR MIN TEMP:  46; 6HR MAX TEMP:  52; 6HR PCP:  0.02;

SAWYER-GWINN   FOG       36  35  97 CALM      29.98F VSB 1/4
$$
MIZ001>003-009>011-084-210700-
WESTERN UPPER MICHIGAN

CITY           SKY/WX    TMP DP  RH WIND       PRES   REMARKS
IRON MOUNTAIN  FOG       43  42  97 CALM      29.98S VSB<1/4
6HR MIN TEMP:  38; 6HR MAX TEMP:  58;

HOUGHTON       FAIR      40  33  76 CALM      29.97S
6HR MIN TEMP:  32; 6HR MAX TEMP:  49;

COPPER HARBOR    N/A     38  33  82 SW7       29.96F WCI  33
6HR MIN TEMP:  34; 6HR MAX TEMP:  45;

IRONWOOD       FAIR      34  27  75 CALM      29.94F
6HR MIN TEMP:  34; 6HR MAX TEMP:  59;

$$

ABBREVIATIONS USED IN REMARKS
   TC - TEMPERATURE IN CELSIUS
  WCI - WIND CHILL INDEX
   HX - HEAT INDEX
  VSB - VISIBILITY




USA.gov is the U.S. government's official web portal to all federal, state and local government web resources and services.